Date Hour Ending, MW ,,,,,,,,,,,,,,,,,
 10/01/2016 1:00,245,,,,,,,,,,,,,,,,,
 10/01/2016 2:00,212,,,,,,,,,,,,,,,,,
 10/01/2016 3:00,197,,,,,,,,,,,,,,,,,
 10/01/2016 4:00,196,,,,,,,,,,,,,,,,,
 10/01/2016 5:00,195,,,,,,,,,,,,,,,,,
 10/01/2016 6:00,204,,,,,,,,,,,,,,,,,
 10/01/2016 7:00,290,,,,,,,,,,,,,,,,,
 10/01/2016 8:00,336,,,,,,,,,,,,,,,,,
 10/01/2016 9:00,352,,,,,,,,,,,,,,,,,
 10/01/2016 10:00,421,,,,,,,,,,,,,,,,,
 10/01/2016 11:00,416,,,,,,,,,,,,,,,,,
 10/01/2016 12:00,396,,,,,,,,,,,,,,,,,
 10/01/2016 13:00,338,,,,,,,,,,,,,,,,,
 10/01/2016 14:00,284,,,,,,,,,,,,,,,,,
 10/01/2016 15:00,267,,,,,,,,,,,,,,,,,
 10/01/2016 16:00,261,,,,,,,,,,,,,,,,,
 10/01/2016 17:00,276,,,,,,,,,,,,,,,,,
 10/01/2016 18:00,341,,,,,,,,,,,,,,,,,
 10/01/2016 19:00,341,,,,,,,,,,,,,,,,,
 10/01/2016 20:00,403,,,,,,,,,,,,,,,,,
 10/01/2016 21:00,370,,,,,,,,,,,,,,,,,
 10/01/2016 22:00,338,,,,,,,,,,,,,,,,,
 10/01/2016 23:00,280,,,,,,,,,,,,,,,,,
 10/02/2016 0:00,254,,,,,,,,,,,,,,,,,
 10/02/2016 1:00,204,,,,,,,,,,,,,,,,,
 10/02/2016 2:00,155,,,,,,,,,,,,,,,,,
 10/02/2016 3:00,157,,,,,,,,,,,,,,,,,
 10/02/2016 4:00,148,,,,,,,,,,,,,,,,,
 10/02/2016 5:00,147,,,,,,,,,,,,,,,,,
 10/02/2016 6:00,152,,,,,,,,,,,,,,,,,
 10/02/2016 7:00,201,,,,,,,,,,,,,,,,,
 10/02/2016 8:00,255,,,,,,,,,,,,,,,,,
 10/02/2016 9:00,254,,,,,,,,,,,,,,,,,
 10/02/2016 10:00,327,,,,,,,,,,,,,,,,,
 10/02/2016 11:00,301,,,,,,,,,,,,,,,,,
 10/02/2016 12:00,303,,,,,,,,,,,,,,,,,
 10/02/2016 13:00,320,,,,,,,,,,,,,,,,,
 10/02/2016 14:00,339,,,,,,,,,,,,,,,,,
 10/02/2016 15:00,346,,,,,,,,,,,,,,,,,
 10/02/2016 16:00,355,,,,,,,,,,,,,,,,,
 10/02/2016 17:00,389,,,,,,,,,,,,,,,,,
 10/02/2016 18:00,431,,,,,,,,,,,,,,,,,
 10/02/2016 19:00,409,,,,,,,,,,,,,,,,,
 10/02/2016 20:00,416,,,,,,,,,,,,,,,,,
 10/02/2016 21:00,415,,,,,,,,,,,,,,,,,
 10/02/2016 22:00,396,,,,,,,,,,,,,,,,,
 10/02/2016 23:00,284,,,,,,,,,,,,,,,,,
 10/03/2016 0:00,195,,,,,,,,,,,,,,,,,
 10/03/2016 1:00,122,,,,,,,,,,,,,,,,,
 10/03/2016 2:00,90,,,,,,,,,,,,,,,,,
 10/03/2016 3:00,87,,,,,,,,,,,,,,,,,
 10/03/2016 4:00,100,,,,,,,,,,,,,,,,,
 10/03/2016 5:00,79,,,,,,,,,,,,,,,,,
 10/03/2016 6:00,76,,,,,,,,,,,,,,,,,
 10/03/2016 7:00,181,,,,,,,,,,,,,,,,,
 10/03/2016 8:00,335,,,,,,,,,,,,,,,,,
 10/03/2016 9:00,278,,,,,,,,,,,,,,,,,
 10/03/2016 10:00,219,,,,,,,,,,,,,,,,,
 10/03/2016 11:00,203,,,,,,,,,,,,,,,,,
 10/03/2016 12:00,145,,,,,,,,,,,,,,,,,
 10/03/2016 13:00,185,,,,,,,,,,,,,,,,,
 10/03/2016 14:00,116,,,,,,,,,,,,,,,,,
 10/03/2016 15:00,157,,,,,,,,,,,,,,,,,
 10/03/2016 16:00,152,,,,,,,,,,,,,,,,,
 10/03/2016 17:00,184,,,,,,,,,,,,,,,,,
 10/03/2016 18:00,208,,,,,,,,,,,,,,,,,
 10/03/2016 19:00,269,,,,,,,,,,,,,,,,,
 10/03/2016 20:00,322,,,,,,,,,,,,,,,,,
 10/03/2016 21:00,313,,,,,,,,,,,,,,,,,
 10/03/2016 22:00,225,,,,,,,,,,,,,,,,,
 10/03/2016 23:00,132,,,,,,,,,,,,,,,,,
 10/04/2016 0:00,127,,,,,,,,,,,,,,,,,
 10/04/2016 1:00,167,,,,,,,,,,,,,,,,,
 10/04/2016 2:00,135,,,,,,,,,,,,,,,,,
 10/04/2016 3:00,201,,,,,,,,,,,,,,,,,
 10/04/2016 4:00,259,,,,,,,,,,,,,,,,,
 10/04/2016 5:00,296,,,,,,,,,,,,,,,,,
 10/04/2016 6:00,348,,,,,,,,,,,,,,,,,
 10/04/2016 7:00,405,,,,,,,,,,,,,,,,,
 10/04/2016 8:00,473,,,,,,,,,,,,,,,,,
 10/04/2016 9:00,463,,,,,,,,,,,,,,,,,
 10/04/2016 10:00,461,,,,,,,,,,,,,,,,,
 10/04/2016 11:00,468,,,,,,,,,,,,,,,,,
 10/04/2016 12:00,458,,,,,,,,,,,,,,,,,
 10/04/2016 13:00,442,,,,,,,,,,,,,,,,,
 10/04/2016 14:00,431,,,,,,,,,,,,,,,,,
 10/04/2016 15:00,397,,,,,,,,,,,,,,,,,
 10/04/2016 16:00,405,,,,,,,,,,,,,,,,,
 10/04/2016 17:00,430,,,,,,,,,,,,,,,,,
 10/04/2016 18:00,429,,,,,,,,,,,,,,,,,
 10/04/2016 19:00,404,,,,,,,,,,,,,,,,,
 10/04/2016 20:00,406,,,,,,,,,,,,,,,,,
 10/04/2016 21:00,382,,,,,,,,,,,,,,,,,
 10/04/2016 22:00,387,,,,,,,,,,,,,,,,,
 10/04/2016 23:00,341,,,,,,,,,,,,,,,,,
 10/05/2016 0:00,332,,,,,,,,,,,,,,,,,
 10/05/2016 1:00,236,,,,,,,,,,,,,,,,,
 10/05/2016 2:00,243,,,,,,,,,,,,,,,,,
 10/05/2016 3:00,202,,,,,,,,,,,,,,,,,
 10/05/2016 4:00,157,,,,,,,,,,,,,,,,,
 10/05/2016 5:00,174,,,,,,,,,,,,,,,,,
 10/05/2016 6:00,324,,,,,,,,,,,,,,,,,
 10/05/2016 7:00,484,,,,,,,,,,,,,,,,,
 10/05/2016 8:00,496,,,,,,,,,,,,,,,,,
 10/05/2016 9:00,447,,,,,,,,,,,,,,,,,
 10/05/2016 10:00,425,,,,,,,,,,,,,,,,,
 10/05/2016 11:00,466,,,,,,,,,,,,,,,,,
 10/05/2016 12:00,467,,,,,,,,,,,,,,,,,
 10/05/2016 13:00,469,,,,,,,,,,,,,,,,,
 10/05/2016 14:00,456,,,,,,,,,,,,,,,,,
 10/05/2016 15:00,464,,,,,,,,,,,,,,,,,
 10/05/2016 16:00,457,,,,,,,,,,,,,,,,,
 10/05/2016 17:00,460,,,,,,,,,,,,,,,,,
 10/05/2016 18:00,457,,,,,,,,,,,,,,,,,
 10/05/2016 19:00,442,,,,,,,,,,,,,,,,,
 10/05/2016 20:00,436,,,,,,,,,,,,,,,,,
 10/05/2016 21:00,441,,,,,,,,,,,,,,,,,
 10/05/2016 22:00,432,,,,,,,,,,,,,,,,,
 10/05/2016 23:00,339,,,,,,,,,,,,,,,,,
 10/06/2016 0:00,305,,,,,,,,,,,,,,,,,
 10/06/2016 1:00,270,,,,,,,,,,,,,,,,,
 10/06/2016 2:00,235,,,,,,,,,,,,,,,,,
 10/06/2016 3:00,199,,,,,,,,,,,,,,,,,
 10/06/2016 4:00,196,,,,,,,,,,,,,,,,,
 10/06/2016 5:00,250,,,,,,,,,,,,,,,,,
 10/06/2016 6:00,314,,,,,,,,,,,,,,,,,
 10/06/2016 7:00,403,,,,,,,,,,,,,,,,,
 10/06/2016 8:00,450,,,,,,,,,,,,,,,,,
 10/06/2016 9:00,407,,,,,,,,,,,,,,,,,
 10/06/2016 10:00,465,,,,,,,,,,,,,,,,,
 10/06/2016 11:00,452,,,,,,,,,,,,,,,,,
 10/06/2016 12:00,424,,,,,,,,,,,,,,,,,
 10/06/2016 13:00,415,,,,,,,,,,,,,,,,,
 10/06/2016 14:00,446,,,,,,,,,,,,,,,,,
 10/06/2016 15:00,426,,,,,,,,,,,,,,,,,
 10/06/2016 16:00,451,,,,,,,,,,,,,,,,,
 10/06/2016 17:00,448,,,,,,,,,,,,,,,,,
 10/06/2016 18:00,426,,,,,,,,,,,,,,,,,
 10/06/2016 19:00,417,,,,,,,,,,,,,,,,,
 10/06/2016 20:00,396,,,,,,,,,,,,,,,,,
 10/06/2016 21:00,345,,,,,,,,,,,,,,,,,
 10/06/2016 22:00,364,,,,,,,,,,,,,,,,,
 10/06/2016 23:00,287,,,,,,,,,,,,,,,,,
 10/07/2016 0:00,155,,,,,,,,,,,,,,,,,
 10/07/2016 1:00,91,,,,,,,,,,,,,,,,,
 10/07/2016 2:00,93,,,,,,,,,,,,,,,,,
 10/07/2016 3:00,91,,,,,,,,,,,,,,,,,
 10/07/2016 4:00,90,,,,,,,,,,,,,,,,,
 10/07/2016 5:00,86,,,,,,,,,,,,,,,,,
 10/07/2016 6:00,179,,,,,,,,,,,,,,,,,
 10/07/2016 7:00,343,,,,,,,,,,,,,,,,,
 10/07/2016 8:00,460,,,,,,,,,,,,,,,,,
 10/07/2016 9:00,477,,,,,,,,,,,,,,,,,
 10/07/2016 10:00,475,,,,,,,,,,,,,,,,,
 10/07/2016 11:00,466,,,,,,,,,,,,,,,,,
 10/07/2016 12:00,450,,,,,,,,,,,,,,,,,
 10/07/2016 13:00,455,,,,,,,,,,,,,,,,,
 10/07/2016 14:00,452,,,,,,,,,,,,,,,,,
 10/07/2016 15:00,441,,,,,,,,,,,,,,,,,
 10/07/2016 16:00,428,,,,,,,,,,,,,,,,,
 10/07/2016 17:00,424,,,,,,,,,,,,,,,,,
 10/07/2016 18:00,418,,,,,,,,,,,,,,,,,
 10/07/2016 19:00,378,,,,,,,,,,,,,,,,,
 10/07/2016 20:00,391,,,,,,,,,,,,,,,,,
 10/07/2016 21:00,408,,,,,,,,,,,,,,,,,
 10/07/2016 22:00,422,,,,,,,,,,,,,,,,,
 10/07/2016 23:00,372,,,,,,,,,,,,,,,,,
 10/08/2016 0:00,339,,,,,,,,,,,,,,,,,
 10/08/2016 1:00,324,,,,,,,,,,,,,,,,,
 10/08/2016 2:00,291,,,,,,,,,,,,,,,,,
 10/08/2016 3:00,275,,,,,,,,,,,,,,,,,
 10/08/2016 4:00,318,,,,,,,,,,,,,,,,,
 10/08/2016 5:00,293,,,,,,,,,,,,,,,,,
 10/08/2016 6:00,293,,,,,,,,,,,,,,,,,
 10/08/2016 7:00,320,,,,,,,,,,,,,,,,,
 10/08/2016 8:00,353,,,,,,,,,,,,,,,,,
 10/08/2016 9:00,351,,,,,,,,,,,,,,,,,
 10/08/2016 10:00,347,,,,,,,,,,,,,,,,,
 10/08/2016 11:00,350,,,,,,,,,,,,,,,,,
 10/08/2016 12:00,341,,,,,,,,,,,,,,,,,
 10/08/2016 13:00,312,,,,,,,,,,,,,,,,,
 10/08/2016 14:00,291,,,,,,,,,,,,,,,,,
 10/08/2016 15:00,221,,,,,,,,,,,,,,,,,
 10/08/2016 16:00,210,,,,,,,,,,,,,,,,,
 10/08/2016 17:00,217,,,,,,,,,,,,,,,,,
 10/08/2016 18:00,217,,,,,,,,,,,,,,,,,
 10/08/2016 19:00,190,,,,,,,,,,,,,,,,,
 10/08/2016 20:00,200,,,,,,,,,,,,,,,,,
 10/08/2016 21:00,156,,,,,,,,,,,,,,,,,
 10/08/2016 22:00,146,,,,,,,,,,,,,,,,,
 10/08/2016 23:00,149,,,,,,,,,,,,,,,,,
 10/09/2016 0:00,146,,,,,,,,,,,,,,,,,
 10/09/2016 1:00,136,,,,,,,,,,,,,,,,,
 10/09/2016 2:00,139,,,,,,,,,,,,,,,,,
 10/09/2016 3:00,124,,,,,,,,,,,,,,,,,
 10/09/2016 4:00,144,,,,,,,,,,,,,,,,,
 10/09/2016 5:00,165,,,,,,,,,,,,,,,,,
 10/09/2016 6:00,213,,,,,,,,,,,,,,,,,
 10/09/2016 7:00,255,,,,,,,,,,,,,,,,,
 10/09/2016 8:00,258,,,,,,,,,,,,,,,,,
 10/09/2016 9:00,247,,,,,,,,,,,,,,,,,
 10/09/2016 10:00,325,,,,,,,,,,,,,,,,,
 10/09/2016 11:00,417,,,,,,,,,,,,,,,,,
 10/09/2016 12:00,487,,,,,,,,,,,,,,,,,
 10/09/2016 13:00,510,,,,,,,,,,,,,,,,,
 10/09/2016 14:00,493,,,,,,,,,,,,,,,,,
 10/09/2016 15:00,478,,,,,,,,,,,,,,,,,
 10/09/2016 16:00,496,,,,,,,,,,,,,,,,,
 10/09/2016 17:00,487,,,,,,,,,,,,,,,,,
 10/09/2016 18:00,433,,,,,,,,,,,,,,,,,
 10/09/2016 19:00,403,,,,,,,,,,,,,,,,,
 10/09/2016 20:00,359,,,,,,,,,,,,,,,,,
 10/09/2016 21:00,302,,,,,,,,,,,,,,,,,
 10/09/2016 22:00,267,,,,,,,,,,,,,,,,,
 10/09/2016 23:00,228,,,,,,,,,,,,,,,,,
 10/10/2016 0:00,211,,,,,,,,,,,,,,,,,
 10/10/2016 1:00,165,,,,,,,,,,,,,,,,,
 10/10/2016 2:00,175,,,,,,,,,,,,,,,,,
 10/10/2016 3:00,211,,,,,,,,,,,,,,,,,
 10/10/2016 4:00,230,,,,,,,,,,,,,,,,,
 10/10/2016 5:00,229,,,,,,,,,,,,,,,,,
 10/10/2016 6:00,203,,,,,,,,,,,,,,,,,
 10/10/2016 7:00,190,,,,,,,,,,,,,,,,,
 10/10/2016 8:00,186,,,,,,,,,,,,,,,,,
 10/10/2016 9:00,188,,,,,,,,,,,,,,,,,
 10/10/2016 10:00,221,,,,,,,,,,,,,,,,,
 10/10/2016 11:00,300,,,,,,,,,,,,,,,,,
 10/10/2016 12:00,312,,,,,,,,,,,,,,,,,
 10/10/2016 13:00,295,,,,,,,,,,,,,,,,,
 10/10/2016 14:00,244,,,,,,,,,,,,,,,,,
 10/10/2016 15:00,244,,,,,,,,,,,,,,,,,
 10/10/2016 16:00,263,,,,,,,,,,,,,,,,,
 10/10/2016 17:00,256,,,,,,,,,,,,,,,,,
 10/10/2016 18:00,247,,,,,,,,,,,,,,,,,
 10/10/2016 19:00,243,,,,,,,,,,,,,,,,,
 10/10/2016 20:00,248,,,,,,,,,,,,,,,,,
 10/10/2016 21:00,205,,,,,,,,,,,,,,,,,
 10/10/2016 22:00,163,,,,,,,,,,,,,,,,,
 10/10/2016 23:00,142,,,,,,,,,,,,,,,,,
 10/11/2016 0:00,151,,,,,,,,,,,,,,,,,
 10/11/2016 1:00,114,,,,,,,,,,,,,,,,,
 10/11/2016 2:00,132,,,,,,,,,,,,,,,,,
 10/11/2016 3:00,119,,,,,,,,,,,,,,,,,
 10/11/2016 4:00,113,,,,,,,,,,,,,,,,,
 10/11/2016 5:00,120,,,,,,,,,,,,,,,,,
 10/11/2016 6:00,138,,,,,,,,,,,,,,,,,
 10/11/2016 7:00,249,,,,,,,,,,,,,,,,,
 10/11/2016 8:00,354,,,,,,,,,,,,,,,,,
 10/11/2016 9:00,324,,,,,,,,,,,,,,,,,
 10/11/2016 10:00,239,,,,,,,,,,,,,,,,,
 10/11/2016 11:00,203,,,,,,,,,,,,,,,,,
 10/11/2016 12:00,200,,,,,,,,,,,,,,,,,
 10/11/2016 13:00,208,,,,,,,,,,,,,,,,,
 10/11/2016 14:00,198,,,,,,,,,,,,,,,,,
 10/11/2016 15:00,190,,,,,,,,,,,,,,,,,
 10/11/2016 16:00,218,,,,,,,,,,,,,,,,,
 10/11/2016 17:00,291,,,,,,,,,,,,,,,,,
 10/11/2016 18:00,310,,,,,,,,,,,,,,,,,
 10/11/2016 19:00,353,,,,,,,,,,,,,,,,,
 10/11/2016 20:00,379,,,,,,,,,,,,,,,,,
 10/11/2016 21:00,370,,,,,,,,,,,,,,,,,
 10/11/2016 22:00,341,,,,,,,,,,,,,,,,,
 10/11/2016 23:00,282,,,,,,,,,,,,,,,,,
 10/12/2016 0:00,198,,,,,,,,,,,,,,,,,
 10/12/2016 1:00,208,,,,,,,,,,,,,,,,,
 10/12/2016 2:00,216,,,,,,,,,,,,,,,,,
 10/12/2016 3:00,232,,,,,,,,,,,,,,,,,
 10/12/2016 4:00,263,,,,,,,,,,,,,,,,,
 10/12/2016 5:00,257,,,,,,,,,,,,,,,,,
 10/12/2016 6:00,295,,,,,,,,,,,,,,,,,
 10/12/2016 7:00,426,,,,,,,,,,,,,,,,,
 10/12/2016 8:00,501,,,,,,,,,,,,,,,,,
 10/12/2016 9:00,494,,,,,,,,,,,,,,,,,
 10/12/2016 10:00,478,,,,,,,,,,,,,,,,,
 10/12/2016 11:00,485,,,,,,,,,,,,,,,,,
 10/12/2016 12:00,485,,,,,,,,,,,,,,,,,
 10/12/2016 13:00,454,,,,,,,,,,,,,,,,,
 10/12/2016 14:00,456,,,,,,,,,,,,,,,,,
 10/12/2016 15:00,439,,,,,,,,,,,,,,,,,
 10/12/2016 16:00,435,,,,,,,,,,,,,,,,,
 10/12/2016 17:00,440,,,,,,,,,,,,,,,,,
 10/12/2016 18:00,440,,,,,,,,,,,,,,,,,
 10/12/2016 19:00,428,,,,,,,,,,,,,,,,,
 10/12/2016 20:00,366,,,,,,,,,,,,,,,,,
 10/12/2016 21:00,313,,,,,,,,,,,,,,,,,
 10/12/2016 22:00,242,,,,,,,,,,,,,,,,,
 10/12/2016 23:00,150,,,,,,,,,,,,,,,,,
 10/13/2016 0:00,136,,,,,,,,,,,,,,,,,
 10/13/2016 1:00,130,,,,,,,,,,,,,,,,,
 10/13/2016 2:00,129,,,,,,,,,,,,,,,,,
 10/13/2016 3:00,126,,,,,,,,,,,,,,,,,
 10/13/2016 4:00,127,,,,,,,,,,,,,,,,,
 10/13/2016 5:00,135,,,,,,,,,,,,,,,,,
 10/13/2016 6:00,159,,,,,,,,,,,,,,,,,
 10/13/2016 7:00,255,,,,,,,,,,,,,,,,,
 10/13/2016 8:00,263,,,,,,,,,,,,,,,,,
 10/13/2016 9:00,222,,,,,,,,,,,,,,,,,
 10/13/2016 10:00,251,,,,,,,,,,,,,,,,,
 10/13/2016 11:00,338,,,,,,,,,,,,,,,,,
 10/13/2016 12:00,320,,,,,,,,,,,,,,,,,
 10/13/2016 13:00,269,,,,,,,,,,,,,,,,,
 10/13/2016 14:00,242,,,,,,,,,,,,,,,,,
 10/13/2016 15:00,251,,,,,,,,,,,,,,,,,
 10/13/2016 16:00,243,,,,,,,,,,,,,,,,,
 10/13/2016 17:00,264,,,,,,,,,,,,,,,,,
 10/13/2016 18:00,285,,,,,,,,,,,,,,,,,
 10/13/2016 19:00,274,,,,,,,,,,,,,,,,,
 10/13/2016 20:00,294,,,,,,,,,,,,,,,,,
 10/13/2016 21:00,283,,,,,,,,,,,,,,,,,
 10/13/2016 22:00,245,,,,,,,,,,,,,,,,,
 10/13/2016 23:00,249,,,,,,,,,,,,,,,,,
 10/14/2016 0:00,259,,,,,,,,,,,,,,,,,
 10/14/2016 1:00,245,,,,,,,,,,,,,,,,,
 10/14/2016 2:00,220,,,,,,,,,,,,,,,,,
 10/14/2016 3:00,224,,,,,,,,,,,,,,,,,
 10/14/2016 4:00,218,,,,,,,,,,,,,,,,,
 10/14/2016 5:00,213,,,,,,,,,,,,,,,,,
 10/14/2016 6:00,245,,,,,,,,,,,,,,,,,
 10/14/2016 7:00,329,,,,,,,,,,,,,,,,,
 10/14/2016 8:00,451,,,,,,,,,,,,,,,,,
 10/14/2016 9:00,420,,,,,,,,,,,,,,,,,
 10/14/2016 10:00,321,,,,,,,,,,,,,,,,,
 10/14/2016 11:00,327,,,,,,,,,,,,,,,,,
 10/14/2016 12:00,294,,,,,,,,,,,,,,,,,
 10/14/2016 13:00,270,,,,,,,,,,,,,,,,,
 10/14/2016 14:00,247,,,,,,,,,,,,,,,,,
 10/14/2016 15:00,235,,,,,,,,,,,,,,,,,
 10/14/2016 16:00,249,,,,,,,,,,,,,,,,,
 10/14/2016 17:00,256,,,,,,,,,,,,,,,,,
 10/14/2016 18:00,262,,,,,,,,,,,,,,,,,
 10/14/2016 19:00,292,,,,,,,,,,,,,,,,,
 10/14/2016 20:00,300,,,,,,,,,,,,,,,,,
 10/14/2016 21:00,259,,,,,,,,,,,,,,,,,
 10/14/2016 22:00,242,,,,,,,,,,,,,,,,,
 10/14/2016 23:00,247,,,,,,,,,,,,,,,,,
 10/15/2016 0:00,258,,,,,,,,,,,,,,,,,
 10/15/2016 1:00,222,,,,,,,,,,,,,,,,,
 10/15/2016 2:00,167,,,,,,,,,,,,,,,,,
 10/15/2016 3:00,192,,,,,,,,,,,,,,,,,
 10/15/2016 4:00,216,,,,,,,,,,,,,,,,,
 10/15/2016 5:00,234,,,,,,,,,,,,,,,,,
 10/15/2016 6:00,235,,,,,,,,,,,,,,,,,
 10/15/2016 7:00,247,,,,,,,,,,,,,,,,,
 10/15/2016 8:00,330,,,,,,,,,,,,,,,,,
 10/15/2016 9:00,441,,,,,,,,,,,,,,,,,
 10/15/2016 10:00,522,,,,,,,,,,,,,,,,,
 10/15/2016 11:00,505,,,,,,,,,,,,,,,,,
 10/15/2016 12:00,446,,,,,,,,,,,,,,,,,
 10/15/2016 13:00,427,,,,,,,,,,,,,,,,,
 10/15/2016 14:00,396,,,,,,,,,,,,,,,,,
 10/15/2016 15:00,365,,,,,,,,,,,,,,,,,
 10/15/2016 16:00,404,,,,,,,,,,,,,,,,,
 10/15/2016 17:00,446,,,,,,,,,,,,,,,,,
 10/15/2016 18:00,472,,,,,,,,,,,,,,,,,
 10/15/2016 19:00,482,,,,,,,,,,,,,,,,,
 10/15/2016 20:00,506,,,,,,,,,,,,,,,,,
 10/15/2016 21:00,500,,,,,,,,,,,,,,,,,
 10/15/2016 22:00,475,,,,,,,,,,,,,,,,,
 10/15/2016 23:00,465,,,,,,,,,,,,,,,,,
 10/16/2016 0:00,441,,,,,,,,,,,,,,,,,
 10/16/2016 1:00,441,,,,,,,,,,,,,,,,,
 10/16/2016 2:00,348,,,,,,,,,,,,,,,,,
 10/16/2016 3:00,368,,,,,,,,,,,,,,,,,
 10/16/2016 4:00,286,,,,,,,,,,,,,,,,,
 10/16/2016 5:00,275,,,,,,,,,,,,,,,,,
 10/16/2016 6:00,366,,,,,,,,,,,,,,,,,
 10/16/2016 7:00,408,,,,,,,,,,,,,,,,,
 10/16/2016 8:00,451,,,,,,,,,,,,,,,,,
 10/16/2016 9:00,479,,,,,,,,,,,,,,,,,
 10/16/2016 10:00,508,,,,,,,,,,,,,,,,,
 10/16/2016 11:00,482,,,,,,,,,,,,,,,,,
 10/16/2016 12:00,445,,,,,,,,,,,,,,,,,
 10/16/2016 13:00,410,,,,,,,,,,,,,,,,,
 10/16/2016 14:00,383,,,,,,,,,,,,,,,,,
 10/16/2016 15:00,333,,,,,,,,,,,,,,,,,
 10/16/2016 16:00,274,,,,,,,,,,,,,,,,,
 10/16/2016 17:00,299,,,,,,,,,,,,,,,,,
 10/16/2016 18:00,335,,,,,,,,,,,,,,,,,
 10/16/2016 19:00,351,,,,,,,,,,,,,,,,,
 10/16/2016 20:00,339,,,,,,,,,,,,,,,,,
 10/16/2016 21:00,306,,,,,,,,,,,,,,,,,
 10/16/2016 22:00,255,,,,,,,,,,,,,,,,,
 10/16/2016 23:00,203,,,,,,,,,,,,,,,,,
 10/17/2016 0:00,195,,,,,,,,,,,,,,,,,
 10/17/2016 1:00,199,,,,,,,,,,,,,,,,,
 10/17/2016 2:00,198,,,,,,,,,,,,,,,,,
 10/17/2016 3:00,201,,,,,,,,,,,,,,,,,
 10/17/2016 4:00,192,,,,,,,,,,,,,,,,,
 10/17/2016 5:00,240,,,,,,,,,,,,,,,,,
 10/17/2016 6:00,346,,,,,,,,,,,,,,,,,
 10/17/2016 7:00,495,,,,,,,,,,,,,,,,,
 10/17/2016 8:00,537,,,,,,,,,,,,,,,,,
 10/17/2016 9:00,509,,,,,,,,,,,,,,,,,
 10/17/2016 10:00,562,,,,,,,,,,,,,,,,,
 10/17/2016 11:00,574,,,,,,,,,,,,,,,,,
 10/17/2016 12:00,576,,,,,,,,,,,,,,,,,
 10/17/2016 13:00,580,,,,,,,,,,,,,,,,,
 10/17/2016 14:00,568,,,,,,,,,,,,,,,,,
 10/17/2016 15:00,551,,,,,,,,,,,,,,,,,
 10/17/2016 16:00,509,,,,,,,,,,,,,,,,,
 10/17/2016 17:00,517,,,,,,,,,,,,,,,,,
 10/17/2016 18:00,564,,,,,,,,,,,,,,,,,
 10/17/2016 19:00,494,,,,,,,,,,,,,,,,,
 10/17/2016 20:00,498,,,,,,,,,,,,,,,,,
 10/17/2016 21:00,435,,,,,,,,,,,,,,,,,
 10/17/2016 22:00,396,,,,,,,,,,,,,,,,,
 10/17/2016 23:00,340,,,,,,,,,,,,,,,,,
 10/18/2016 0:00,241,,,,,,,,,,,,,,,,,
 10/18/2016 1:00,278,,,,,,,,,,,,,,,,,
 10/18/2016 2:00,268,,,,,,,,,,,,,,,,,
 10/18/2016 3:00,246,,,,,,,,,,,,,,,,,
 10/18/2016 4:00,230,,,,,,,,,,,,,,,,,
 10/18/2016 5:00,311,,,,,,,,,,,,,,,,,
 10/18/2016 6:00,366,,,,,,,,,,,,,,,,,
 10/18/2016 7:00,441,,,,,,,,,,,,,,,,,
 10/18/2016 8:00,529,,,,,,,,,,,,,,,,,
 10/18/2016 9:00,550,,,,,,,,,,,,,,,,,
 10/18/2016 10:00,541,,,,,,,,,,,,,,,,,
 10/18/2016 11:00,514,,,,,,,,,,,,,,,,,
 10/18/2016 12:00,471,,,,,,,,,,,,,,,,,
 10/18/2016 13:00,449,,,,,,,,,,,,,,,,,
 10/18/2016 14:00,434,,,,,,,,,,,,,,,,,
 10/18/2016 15:00,409,,,,,,,,,,,,,,,,,
 10/18/2016 16:00,410,,,,,,,,,,,,,,,,,
 10/18/2016 17:00,450,,,,,,,,,,,,,,,,,
 10/18/2016 18:00,424,,,,,,,,,,,,,,,,,
 10/18/2016 19:00,337,,,,,,,,,,,,,,,,,
 10/18/2016 20:00,295,,,,,,,,,,,,,,,,,
 10/18/2016 21:00,170,,,,,,,,,,,,,,,,,
 10/18/2016 22:00,170,,,,,,,,,,,,,,,,,
 10/18/2016 23:00,118,,,,,,,,,,,,,,,,,
 10/19/2016 0:00,127,,,,,,,,,,,,,,,,,
 10/19/2016 1:00,78,,,,,,,,,,,,,,,,,
 10/19/2016 2:00,47,,,,,,,,,,,,,,,,,
 10/19/2016 3:00,61,,,,,,,,,,,,,,,,,
 10/19/2016 4:00,62,,,,,,,,,,,,,,,,,
 10/19/2016 5:00,59,,,,,,,,,,,,,,,,,
 10/19/2016 6:00,58,,,,,,,,,,,,,,,,,
 10/19/2016 7:00,112,,,,,,,,,,,,,,,,,
 10/19/2016 8:00,213,,,,,,,,,,,,,,,,,
 10/19/2016 9:00,226,,,,,,,,,,,,,,,,,
 10/19/2016 10:00,177,,,,,,,,,,,,,,,,,
 10/19/2016 11:00,238,,,,,,,,,,,,,,,,,
 10/19/2016 12:00,260,,,,,,,,,,,,,,,,,
 10/19/2016 13:00,264,,,,,,,,,,,,,,,,,
 10/19/2016 14:00,279,,,,,,,,,,,,,,,,,
 10/19/2016 15:00,298,,,,,,,,,,,,,,,,,
 10/19/2016 16:00,299,,,,,,,,,,,,,,,,,
 10/19/2016 17:00,345,,,,,,,,,,,,,,,,,
 10/19/2016 18:00,416,,,,,,,,,,,,,,,,,
 10/19/2016 19:00,398,,,,,,,,,,,,,,,,,
 10/19/2016 20:00,410,,,,,,,,,,,,,,,,,
 10/19/2016 21:00,352,,,,,,,,,,,,,,,,,
 10/19/2016 22:00,308,,,,,,,,,,,,,,,,,
 10/19/2016 23:00,206,,,,,,,,,,,,,,,,,
 10/20/2016 0:00,172,,,,,,,,,,,,,,,,,
 10/20/2016 1:00,183,,,,,,,,,,,,,,,,,
 10/20/2016 2:00,185,,,,,,,,,,,,,,,,,
 10/20/2016 3:00,169,,,,,,,,,,,,,,,,,
 10/20/2016 4:00,185,,,,,,,,,,,,,,,,,
 10/20/2016 5:00,168,,,,,,,,,,,,,,,,,
 10/20/2016 6:00,180,,,,,,,,,,,,,,,,,
 10/20/2016 7:00,330,,,,,,,,,,,,,,,,,
 10/20/2016 8:00,420,,,,,,,,,,,,,,,,,
 10/20/2016 9:00,486,,,,,,,,,,,,,,,,,
 10/20/2016 10:00,514,,,,,,,,,,,,,,,,,
 10/20/2016 11:00,553,,,,,,,,,,,,,,,,,
 10/20/2016 12:00,519,,,,,,,,,,,,,,,,,
 10/20/2016 13:00,521,,,,,,,,,,,,,,,,,
 10/20/2016 14:00,535,,,,,,,,,,,,,,,,,
 10/20/2016 15:00,537,,,,,,,,,,,,,,,,,
 10/20/2016 16:00,555,,,,,,,,,,,,,,,,,
 10/20/2016 17:00,570,,,,,,,,,,,,,,,,,
 10/20/2016 18:00,575,,,,,,,,,,,,,,,,,
 10/20/2016 19:00,583,,,,,,,,,,,,,,,,,
 10/20/2016 20:00,540,,,,,,,,,,,,,,,,,
 10/20/2016 21:00,542,,,,,,,,,,,,,,,,,
 10/20/2016 22:00,466,,,,,,,,,,,,,,,,,
 10/20/2016 23:00,440,,,,,,,,,,,,,,,,,
 10/21/2016 0:00,317,,,,,,,,,,,,,,,,,
 10/21/2016 1:00,277,,,,,,,,,,,,,,,,,
 10/21/2016 2:00,244,,,,,,,,,,,,,,,,,
 10/21/2016 3:00,190,,,,,,,,,,,,,,,,,
 10/21/2016 4:00,162,,,,,,,,,,,,,,,,,
 10/21/2016 5:00,181,,,,,,,,,,,,,,,,,
 10/21/2016 6:00,210,,,,,,,,,,,,,,,,,
 10/21/2016 7:00,281,,,,,,,,,,,,,,,,,
 10/21/2016 8:00,331,,,,,,,,,,,,,,,,,
 10/21/2016 9:00,345,,,,,,,,,,,,,,,,,
 10/21/2016 10:00,350,,,,,,,,,,,,,,,,,
 10/21/2016 11:00,342,,,,,,,,,,,,,,,,,
 10/21/2016 12:00,385,,,,,,,,,,,,,,,,,
 10/21/2016 13:00,380,,,,,,,,,,,,,,,,,
 10/21/2016 14:00,388,,,,,,,,,,,,,,,,,
 10/21/2016 15:00,424,,,,,,,,,,,,,,,,,
 10/21/2016 16:00,452,,,,,,,,,,,,,,,,,
 10/21/2016 17:00,485,,,,,,,,,,,,,,,,,
 10/21/2016 18:00,499,,,,,,,,,,,,,,,,,
 10/21/2016 19:00,513,,,,,,,,,,,,,,,,,
 10/21/2016 20:00,495,,,,,,,,,,,,,,,,,
 10/21/2016 21:00,433,,,,,,,,,,,,,,,,,
 10/21/2016 22:00,343,,,,,,,,,,,,,,,,,
 10/21/2016 23:00,248,,,,,,,,,,,,,,,,,
 10/22/2016 0:00,234,,,,,,,,,,,,,,,,,
 10/22/2016 1:00,173,,,,,,,,,,,,,,,,,
 10/22/2016 2:00,120,,,,,,,,,,,,,,,,,
 10/22/2016 3:00,133,,,,,,,,,,,,,,,,,
 10/22/2016 4:00,144,,,,,,,,,,,,,,,,,
 10/22/2016 5:00,145,,,,,,,,,,,,,,,,,
 10/22/2016 6:00,125,,,,,,,,,,,,,,,,,
 10/22/2016 7:00,135,,,,,,,,,,,,,,,,,
 10/22/2016 8:00,162,,,,,,,,,,,,,,,,,
 10/22/2016 9:00,206,,,,,,,,,,,,,,,,,
 10/22/2016 10:00,217,,,,,,,,,,,,,,,,,
 10/22/2016 11:00,237,,,,,,,,,,,,,,,,,
 10/22/2016 12:00,272,,,,,,,,,,,,,,,,,
 10/22/2016 13:00,316,,,,,,,,,,,,,,,,,
 10/22/2016 14:00,330,,,,,,,,,,,,,,,,,
 10/22/2016 15:00,352,,,,,,,,,,,,,,,,,
 10/22/2016 16:00,364,,,,,,,,,,,,,,,,,
 10/22/2016 17:00,457,,,,,,,,,,,,,,,,,
 10/22/2016 18:00,485,,,,,,,,,,,,,,,,,
 10/22/2016 19:00,440,,,,,,,,,,,,,,,,,
 10/22/2016 20:00,373,,,,,,,,,,,,,,,,,
 10/22/2016 21:00,313,,,,,,,,,,,,,,,,,
 10/22/2016 22:00,210,,,,,,,,,,,,,,,,,
 10/22/2016 23:00,194,,,,,,,,,,,,,,,,,
 10/23/2016 0:00,144,,,,,,,,,,,,,,,,,
 10/23/2016 1:00,92,,,,,,,,,,,,,,,,,
 10/23/2016 2:00,85,,,,,,,,,,,,,,,,,
 10/23/2016 3:00,83,,,,,,,,,,,,,,,,,
 10/23/2016 4:00,88,,,,,,,,,,,,,,,,,
 10/23/2016 5:00,90,,,,,,,,,,,,,,,,,
 10/23/2016 6:00,95,,,,,,,,,,,,,,,,,
 10/23/2016 7:00,96,,,,,,,,,,,,,,,,,
 10/23/2016 8:00,97,,,,,,,,,,,,,,,,,
 10/23/2016 9:00,104,,,,,,,,,,,,,,,,,
 10/23/2016 10:00,155,,,,,,,,,,,,,,,,,
 10/23/2016 11:00,157,,,,,,,,,,,,,,,,,
 10/23/2016 12:00,166,,,,,,,,,,,,,,,,,
 10/23/2016 13:00,161,,,,,,,,,,,,,,,,,
 10/23/2016 14:00,167,,,,,,,,,,,,,,,,,
 10/23/2016 15:00,161,,,,,,,,,,,,,,,,,
 10/23/2016 16:00,173,,,,,,,,,,,,,,,,,
 10/23/2016 17:00,174,,,,,,,,,,,,,,,,,
 10/23/2016 18:00,202,,,,,,,,,,,,,,,,,
 10/23/2016 19:00,203,,,,,,,,,,,,,,,,,
 10/23/2016 20:00,234,,,,,,,,,,,,,,,,,
 10/23/2016 21:00,207,,,,,,,,,,,,,,,,,
 10/23/2016 22:00,175,,,,,,,,,,,,,,,,,
 10/23/2016 23:00,213,,,,,,,,,,,,,,,,,
 10/24/2016 0:00,165,,,,,,,,,,,,,,,,,
 10/24/2016 1:00,139,,,,,,,,,,,,,,,,,
 10/24/2016 2:00,116,,,,,,,,,,,,,,,,,
 10/24/2016 3:00,118,,,,,,,,,,,,,,,,,
 10/24/2016 4:00,128,,,,,,,,,,,,,,,,,
 10/24/2016 5:00,129,,,,,,,,,,,,,,,,,
 10/24/2016 6:00,173,,,,,,,,,,,,,,,,,
 10/24/2016 7:00,223,,,,,,,,,,,,,,,,,
 10/24/2016 8:00,320,,,,,,,,,,,,,,,,,
 10/24/2016 9:00,362,,,,,,,,,,,,,,,,,
 10/24/2016 10:00,375,,,,,,,,,,,,,,,,,
 10/24/2016 11:00,365,,,,,,,,,,,,,,,,,
 10/24/2016 12:00,302,,,,,,,,,,,,,,,,,
 10/24/2016 13:00,240,,,,,,,,,,,,,,,,,
 10/24/2016 14:00,197,,,,,,,,,,,,,,,,,
 10/24/2016 15:00,193,,,,,,,,,,,,,,,,,
 10/24/2016 16:00,171,,,,,,,,,,,,,,,,,
 10/24/2016 17:00,236,,,,,,,,,,,,,,,,,
 10/24/2016 18:00,271,,,,,,,,,,,,,,,,,
 10/24/2016 19:00,370,,,,,,,,,,,,,,,,,
 10/24/2016 20:00,476,,,,,,,,,,,,,,,,,
 10/24/2016 21:00,405,,,,,,,,,,,,,,,,,
 10/24/2016 22:00,370,,,,,,,,,,,,,,,,,
 10/24/2016 23:00,328,,,,,,,,,,,,,,,,,
 10/25/2016 0:00,243,,,,,,,,,,,,,,,,,
 10/25/2016 1:00,220,,,,,,,,,,,,,,,,,
 10/25/2016 2:00,231,,,,,,,,,,,,,,,,,
 10/25/2016 3:00,215,,,,,,,,,,,,,,,,,
 10/25/2016 4:00,222,,,,,,,,,,,,,,,,,
 10/25/2016 5:00,252,,,,,,,,,,,,,,,,,
 10/25/2016 6:00,351,,,,,,,,,,,,,,,,,
 10/25/2016 7:00,425,,,,,,,,,,,,,,,,,
 10/25/2016 8:00,520,,,,,,,,,,,,,,,,,
 10/25/2016 9:00,536,,,,,,,,,,,,,,,,,
 10/25/2016 10:00,455,,,,,,,,,,,,,,,,,
 10/25/2016 11:00,490,,,,,,,,,,,,,,,,,
 10/25/2016 12:00,455,,,,,,,,,,,,,,,,,
 10/25/2016 13:00,391,,,,,,,,,,,,,,,,,
 10/25/2016 14:00,339,,,,,,,,,,,,,,,,,
 10/25/2016 15:00,323,,,,,,,,,,,,,,,,,
 10/25/2016 16:00,360,,,,,,,,,,,,,,,,,
 10/25/2016 17:00,421,,,,,,,,,,,,,,,,,
 10/25/2016 18:00,493,,,,,,,,,,,,,,,,,
 10/25/2016 19:00,565,,,,,,,,,,,,,,,,,
 10/25/2016 20:00,589,,,,,,,,,,,,,,,,,
 10/25/2016 21:00,555,,,,,,,,,,,,,,,,,
 10/25/2016 22:00,502,,,,,,,,,,,,,,,,,
 10/25/2016 23:00,408,,,,,,,,,,,,,,,,,
 10/26/2016 0:00,428,,,,,,,,,,,,,,,,,
 10/26/2016 1:00,409,,,,,,,,,,,,,,,,,
 10/26/2016 2:00,414,,,,,,,,,,,,,,,,,
 10/26/2016 3:00,406,,,,,,,,,,,,,,,,,
 10/26/2016 4:00,408,,,,,,,,,,,,,,,,,
 10/26/2016 5:00,424,,,,,,,,,,,,,,,,,